This demonstration page uses our WeatherBlox Daily Observations layout. Learn more.

Left ArrowRight Arrow

34.02893, -84.19858

Hourly Observations for June 29, 2020

Temp ( °F °C ) Dew Point ( °F °C ) Humidity (%) Winds ( mph kmh ) Pressure ( in mb ) Visibility ( mi km ) Precip ( " mm )
12:53 am 00:53 Clear 76 24.4 70 21.1 82 82 Calm 29.95 1014 10 16 0.00 0.00
1:53 am 01:53 Clear 73 22.8 70 21.1 90 90 SSW 3 6 29.93 1014 10 16 0.00 0.00
2:53 am 02:53 Clear 73 22.8 70 21.1 90 90 SW 7 11 29.92 1013 10 16 0.00 0.00
3:53 am 03:53 Clear 74 23.3 70 21.1 88 88 W 5 7 29.92 1013 10 16 0.00 0.00
4:53 am 04:53 Mostly Clear 73 22.8 70 21.1 90 90 WSW 5 7 29.94 1014 10 16 0.00 0.00
5:53 am 05:53 Mostly Clear 73 22.8 71 21.7 94 94 W 6 9 29.96 1014 10 16 0.00 0.00
6:53 am 06:53 Sunny 73 22.8 71 21.7 94 94 W 7 11 29.96 1015 10 16 0.00 0.00
7:53 am 07:53 Sunny 74 23.3 71 21.7 91 91 W 5 7 29.99 1016 10 16 0.00 0.00
8:53 am 08:53 Sunny 78 25.6 72 22.2 82 82 WNW 9 15 30.01 1016 10 16 0.00 0.00
9:53 am 09:53 Mostly Sunny 81 27.2 73 22.8 77 77 NW 9 15 30.01 1016 10 16 0.00 0.00
10:53 am 10:53 Mostly Cloudy 84 28.9 73 22.8 70 70 W 12 19 30.01 1016 10 16 0.00 0.00
11:53 am 11:53 Sunny 87 30.6 72 22.2 61 61 WNW 14 22 30.00 1016 10 16 0.00 0.00
12:53 pm 12:53 Sunny 88 31.1 71 21.7 57 57 WNW 10 17 29.99 1016 10 16 0.00 0.00
1:53 pm 13:53 Mostly Sunny 88 31.1 72 22.2 59 59 NW 7 11 29.98 1015 10 16 0.00 0.00
2:53 pm 14:53 Mostly Sunny 90 32.2 72 22.2 56 56 VRB 7 11 29.96 1015 10 16 0.00 0.00
3:53 pm 15:53 Sunny 91 32.8 70 21.1 50 50 WNW 6 9 29.93 1014 10 16 0.00 0.00
4:53 pm 16:53 Sunny 91 32.8 70 21.1 50 50 WNW 8 13 29.92 1013 10 16 0.00 0.00
5:53 pm 17:53 Sunny 91 32.8 71 21.7 52 52 W 9 15 29.93 1014 10 16 0.00 0.00
6:53 pm 18:53 Mostly Sunny 88 31.1 71 21.7 57 57 WNW 9 15 29.92 1013 10 16 0.00 0.00
7:53 pm 19:53 Mostly Sunny 86 30 69 20.6 57 57 NW 14 22 29.94 1014 10 16 0.00 0.00
8:53 pm 20:53 Clear 79 26.1 67 19.4 67 67 NNW 9 15 29.95 1014 10 16 0.00 0.00
9:53 pm 21:53 Clear 77 25 67 19.4 71 71 NNW 6 9 29.97 1015 10 16 0.00 0.00
10:53 pm 22:53 Clear 76 24.4 67 19.4 74 74 N 6 9 29.97 1015 10 16 0.00 0.00
11:53 pm 23:53 Clear 75 23.9 67 19.4 76 76 SW 5 7 29.95 1014 10 16 0.00 0.00

Powered by AerisWeather